| time (UTC) | temp C | wind direction | speed KPH | gust KPH | rain 1hr cm | rain 24hr cm | rain mn cm | humidity % | barometer mb |
| 20260510000020 | 28 | 128 | 4.8 | 11.3 | 0.00 | 0.48 | 0.03 | 53 | 1002.4 |
| 20260509234534 | 28 | 110 | 8.0 | 17.7 | 0.00 | 0.48 | 0.03 | 52 | 1002.8 |
| 20260509233104 | 28 | 135 | 4.8 | 16.1 | 0.00 | 0.48 | 0.03 | 51 | 1002.7 |
| 20260509231514 | 30 | 142 | 4.8 | 22.5 | 0.00 | 0.48 | 0.03 | 49 | 1002.8 |
| 20260509230017 | 30 | 10 | 6.4 | 20.9 | 0.00 | 0.48 | 0.03 | 49 | 1002.9 |
| 20260509224529 | 30 | 71 | 6.4 | 27.4 | 0.00 | 0.48 | 0.03 | 48 | 1003.0 |
| 20260509223005 | 30 | 145 | 9.7 | 20.9 | 0.00 | 0.48 | 0.03 | 49 | 1003.0 |
| 20260509221506 | 30 | 167 | 8.0 | 19.3 | 0.00 | 0.48 | 0.03 | 49 | 1003.4 |
| 20260509220018 | 30 | 49 | 9.7 | 19.3 | 0.00 | 0.48 | 0.03 | 48 | 1003.6 |
| 20260509214520 | 30 | 102 | 4.8 | 19.3 | 0.00 | 0.48 | 0.03 | 48 | 1003.9 |
| 20260509213104 | 31 | 210 | 3.2 | 11.3 | 0.00 | 0.48 | 0.03 | 47 | 1004.1 |
| 20260509211510 | 30 | 84 | 6.4 | 17.7 | 0.00 | 0.48 | 0.03 | 46 | 1004.4 |
| 20260509210018 | 30 | 141 | 6.4 | 17.7 | 0.00 | 0.48 | 0.03 | 48 | 1004.4 |
| 20260509204503 | 30 | 128 | 4.8 | 14.5 | 0.00 | 0.48 | 0.03 | 48 | 1004.6 |
| 20260509203120 | 30 | 133 | 6.4 | 16.1 | 0.00 | 0.48 | 0.03 | 48 | 1004.8 |
| 20260509201517 | 30 | 87 | 4.8 | 16.1 | 0.00 | 0.48 | 0.03 | 48 | 1005.0 |
| 20260509200020 | 30 | 110 | 8.0 | 14.5 | 0.00 | 0.48 | 0.03 | 52 | 1005.4 |
| 20260509194504 | 29 | 40 | 6.4 | 12.9 | 0.00 | 0.48 | 0.03 | 52 | 1005.7 |
| 20260509193103 | 29 | 127 | 6.4 | 14.5 | 0.00 | 0.48 | 0.03 | 53 | 1005.8 |
| 20260509191518 | 28 | 107 | 4.8 | 14.5 | 0.00 | 0.48 | 0.03 | 52 | 1006.0 |
| 20260509190018 | 28 | 74 | 3.2 | 9.7 | 0.00 | 0.48 | 0.03 | 56 | 1006.2 |
| 20260509184525 | 28 | 53 | 6.4 | 12.9 | 0.00 | 0.48 | 0.03 | 55 | 1006.2 |
| 20260509183007 | 28 | 91 | 3.2 | 11.3 | 0.00 | 0.48 | 0.03 | 55 | 1006.3 |
| 20260509181508 | 28 | 79 | 1.6 | 12.9 | 0.00 | 0.48 | 0.03 | 56 | 1006.6 |
| 20260509180017 | 27 | 85 | 6.4 | 14.5 | 0.00 | 0.48 | 0.03 | 57 | 1006.9 |
| 20260509174516 | 27 | 110 | 0.0 | 9.7 | 0.00 | 0.48 | 0.03 | 54 | 1007.3 |
| 20260509173114 | 27 | 98 | 3.2 | 11.3 | 0.00 | 0.48 | 0.03 | 55 | 1007.5 |
| 20260509171517 | 27 | 61 | 4.8 | 11.3 | 0.00 | 0.48 | 0.03 | 57 | 1007.9 |
| 20260509170010 | 26 | 87 | 1.6 | 8.0 | 0.00 | 0.48 | 0.03 | 59 | 1008.0 |
| 20260509164509 | 26 | 92 | 3.2 | 9.7 | 0.00 | 0.48 | 0.03 | 61 | 1008.1 |
| 20260509163113 | 26 | 72 | 1.6 | 8.0 | 0.00 | 0.48 | 0.03 | 64 | 1008.2 |
| 20260509161515 | 25 | 98 | 3.2 | 8.0 | 0.00 | 0.48 | 0.03 | 67 | 1008.4 |
| 20260509160020 | 25 | 125 | 3.2 | 11.3 | 0.00 | 0.48 | 0.03 | 70 | 1008.4 |
| 20260509154517 | 24 | 87 | 0.0 | 6.4 | 0.00 | 0.48 | 0.03 | 72 | 1008.4 |
| 20260509153115 | 23 | 139 | 1.6 | 8.0 | 0.00 | 0.48 | 0.03 | 74 | 1008.4 |
| 20260509151522 | 23 | 146 | 0.0 | 3.2 | 0.00 | 0.48 | 0.03 | 74 | 1008.4 |
| 20260509150005 | 22 | 99 | 1.6 | 4.8 | 0.00 | 0.48 | 0.03 | 76 | 1008.6 |
| 20260509144516 | 21 | 107 | 0.0 | 4.8 | 0.00 | 0.48 | 0.03 | 81 | 1008.6 |
| 20260509143112 | 21 | 94 | 1.6 | 4.8 | 0.00 | 0.48 | 0.03 | 82 | 1008.7 |
| 20260509141535 | 20 | 114 | 0.0 | 3.2 | 0.00 | 0.48 | 0.03 | 86 | 1008.8 |
| 20260509140025 | 19 | 114 | 0.0 | 3.2 | 0.00 | 0.48 | 0.03 | 88 | 1009.0 |
| 20260509134523 | 17 | 112 | 0.0 | 8.0 | 0.00 | 0.48 | 0.03 | 93 | 1008.9 |
| 20260509133109 | 16 | 205 | 1.6 | 4.8 | 0.00 | 0.48 | 0.03 | 94 | 1008.9 |
| 20260509131512 | 16 | 201 | 1.6 | 6.4 | 0.00 | 0.48 | 0.03 | 95 | 1008.8 |
| 20260509130023 | 16 | 208 | 0.0 | 3.2 | 0.00 | 0.48 | 0.03 | 96 | 1008.8 |
| 20260509124519 | 15 | 210 | 0.0 | 3.2 | 0.03 | 0.48 | 0.03 | 96 | 1008.7 |
| 20260509123013 | 14 | 212 | 3.2 | 6.4 | 0.03 | 0.48 | 0.03 | 96 | 1008.6 |
| 20260509121510 | 14 | 233 | 0.0 | 6.4 | 0.03 | 0.48 | 0.03 | 96 | 1008.2 |
| 20260509120024 | 13 | 210 | 1.6 | 11.3 | 0.03 | 0.48 | 0.03 | 95 | 1008.2 |
| 20260509114517 | 14 | 73 | 0.0 | 1.6 | 0.00 | 0.46 | 0.00 | 95 | 1007.8 |
| 20260509113116 | 14 | 73 | 0.0 | 1.6 | 0.00 | 0.46 | 0.00 | 95 | 1007.7 |
| 20260509111519 | 15 | 73 | 0.0 | 0.0 | 0.00 | 0.46 | 0.00 | 95 | 1006.9 |
| 20260509110025 | 15 | 73 | 0.0 | 1.6 | 0.00 | 0.46 | 0.00 | 95 | 1006.9 |
| 20260509104505 | 15 | 73 | 0.0 | 3.2 | 0.00 | 0.46 | 0.00 | 94 | 1007.1 |
| 20260509103112 | 15 | 70 | 0.0 | 4.8 | 0.00 | 0.46 | 0.00 | 94 | 1006.9 |
| 20260509101526 | 15 | 79 | 1.6 | 4.8 | 0.00 | 0.46 | 0.00 | 94 | 1006.8 |
| 20260509100024 | 15 | 89 | 0.0 | 4.8 | 0.00 | 0.46 | 0.00 | 94 | 1006.5 |
| 20260509094505 | 15 | 65 | 0.0 | 6.4 | 0.00 | 0.46 | 0.00 | 94 | 1006.2 |
| 20260509093113 | 15 | 91 | 0.0 | 9.7 | 0.00 | 0.46 | 0.00 | 94 | 1006.0 |
| 20260509091523 | 15 | 340 | 0.0 | 3.2 | 0.00 | 0.46 | 0.00 | 94 | 1006.1 |
| 20260509090018 | 15 | 15 | 0.0 | 3.2 | 0.00 | 0.46 | 0.00 | 93 | 1006.4 |
| 20260509084503 | 15 | 72 | 0.0 | 3.2 | 0.00 | 0.46 | 0.00 | 93 | 1006.4 |
| 20260509083107 | 15 | 306 | 0.0 | 3.2 | 0.00 | 0.46 | 0.00 | 93 | 1006.4 |
| 20260509081524 | 16 | 306 | 0.0 | 1.6 | 0.00 | 0.46 | 0.00 | 92 | 1006.6 |
| 20260509080025 | 16 | 274 | 0.0 | 9.7 | 0.00 | 0.46 | 0.00 | 91 | 1006.5 |
| 20260509074511 | 16 | 279 | 3.2 | 9.7 | 0.00 | 0.46 | 0.00 | 92 | 1006.6 |
| 20260509073108 | 16 | 268 | 0.0 | 3.2 | 0.00 | 0.46 | 0.00 | 92 | 1006.7 |
| 20260509071526 | 16 | 237 | 0.0 | 6.4 | 0.00 | 0.46 | 0.00 | 92 | 1006.6 |
| 20260509070014 | 16 | 248 | 1.6 | 6.4 | 0.00 | 0.46 | 0.00 | 93 | 1007.0 |
| 20260509064511 | 16 | 270 | 4.8 | 9.7 | 0.00 | 0.46 | 0.00 | 93 | 1006.9 |
| 20260509063116 | 16 | 262 | 1.6 | 9.7 | 0.00 | 0.46 | 0.00 | 92 | 1007.2 |
| 20260509061505 | 16 | 244 | 0.0 | 6.4 | 0.00 | 0.46 | 0.00 | 92 | 1007.4 |
| 20260509060019 | 16 | 269 | 0.0 | 6.4 | 0.00 | 0.46 | 0.00 | 92 | 1007.3 |
| 20260509054513 | 16 | 244 | 0.0 | 1.6 | 0.00 | 0.46 | 0.00 | 93 | 1007.1 |
| 20260509053002 | 16 | 202 | 0.0 | 6.4 | 0.00 | 0.46 | 0.00 | 93 | 1007.2 |
| 20260509051507 | 17 | 207 | 3.2 | 8.0 | 0.00 | 0.46 | 0.00 | 93 | 1007.5 |
| 20260509050017 | 17 | 213 | 4.8 | 14.5 | 0.00 | 0.46 | 0.46 | 93 | 1007.7 |
| 20260509044515 | 17 | 208 | 1.6 | 9.7 | 0.00 | 0.46 | 0.46 | 93 | 1007.8 |
| 20260509043118 | 16 | 137 | 1.6 | 12.9 | 0.08 | 0.46 | 0.46 | 91 | 1007.6 |
| 20260509041503 | 16 | 118 | 1.6 | 9.7 | 0.20 | 0.46 | 0.46 | 91 | 1006.9 |
| 20260509040014 | 17 | 179 | 4.8 | 11.3 | 0.38 | 0.46 | 0.46 | 90 | 1006.8 |
| 20260509034516 | 17 | 197 | 4.8 | 12.9 | 0.46 | 0.46 | 0.46 | 90 | 1006.4 |
| 20260509033005 | 17 | 294 | 0.0 | 6.4 | 0.38 | 0.38 | 0.38 | 88 | 1007.3 |
| 20260509031506 | 17 | 81 | 6.4 | 12.9 | 0.23 | 0.23 | 0.23 | 85 | 1007.7 |
| 20260509030015 | 19 | 84 | 8.0 | 33.8 | 0.08 | 0.08 | 0.08 | 77 | 1007.5 |
| 20260509024518 | 22 | 60 | 9.7 | 32.2 | 0.00 | 0.00 | 0.00 | 67 | 1006.9 |
| 20260509023001 | 23 | 70 | 17.7 | 32.2 | 0.00 | 0.00 | 0.00 | 71 | 1005.6 |
| 20260509021505 | 23 | 101 | 6.4 | 14.5 | 0.00 | 0.00 | 0.00 | 74 | 1004.6 |
| 20260509020025 | 23 | 101 | 8.0 | 16.1 | 0.00 | 0.00 | 0.00 | 72 | 1003.4 |
| 20260509014535 | 24 | 136 | 6.4 | 19.3 | 0.00 | 0.00 | 0.00 | 71 | 1002.9 |
| 20260509013113 | 25 | 137 | 11.3 | 20.9 | 0.00 | 0.00 | 0.00 | 70 | 1002.6 |
| 20260509011502 | 25 | 141 | 6.4 | 12.9 | 0.00 | 0.00 | 0.00 | 67 | 1002.8 |
| 20260509010010 | 26 | 122 | 1.6 | 12.9 | 0.00 | 0.00 | 0.00 | 65 | 1002.7 |
| 20260509004519 | 27 | 123 | 0.0 | 12.9 | 0.00 | 0.00 | 0.00 | 63 | 1002.6 |
| 20260509003111 | 27 | 68 | 4.8 | 17.7 | 0.00 | 0.00 | 0.00 | 62 | 1002.4 |
| 20260509001517 | 27 | 122 | 4.8 | 19.3 | 0.00 | 0.00 | 0.00 | 60 | 1002.4 |